FW6165 Weather Reports


Display with metric or nautical units.
time (UTC)temp
F
wind
direction
speed
MPH
gust
MPH
rain 1hr
in
rain 24hr
in
rain mn
in
humidity
%
barometer
mb
20260505225848 79 276 0.0 1.0 0.00 0.00 0.00 37 1008.1
20260505224847 79 277 0.0 2.0 0.00 0.00 0.00 37 1008.5
20260505223846 79 287 0.0 2.0 0.00 0.00 0.00 36 1008.1
20260505222845 79 120 0.0 2.0 0.00 0.00 0.00 36 1008.5
20260505221845 80 257 0.0 1.0 0.00 0.00 0.00 36 1008.5
20260505220844 80 186 0.0 4.0 0.00 0.00 0.00 35 1008.5
20260505215843 81 274 0.0 7.0 0.00 0.00 0.00 32 1008.1
20260505214842 81 98 1.0 8.0 0.00 0.00 0.00 33 1008.1
20260505213842 81 280 0.0 1.0 0.00 0.00 0.00 35 1008.1
20260505212841 82 264 0.0 2.0 0.00 0.00 0.00 34 1008.1
20260505211840 82 219 1.0 2.0 0.00 0.00 0.00 33 1008.1
20260505210809 82 268 1.0 4.0 0.00 0.00 0.00 33 1008.1
20260505205737 82 245 1.0 4.0 0.00 0.00 0.00 35 1007.8
20260505204736 82 239 0.0 2.0 0.00 0.00 0.00 33 1007.8
20260505203705 82 116 0.0 2.0 0.00 0.00 0.00 35 1008.1
20260505202704 82 270 0.0 2.0 0.00 0.00 0.00 35 1008.1
20260505201703 82 103 1.0 6.0 0.00 0.00 0.00 34 1007.8
20260505200631 82 290 2.0 7.0 0.00 0.00 0.00 35 1008.1
20260505195630 83 262 1.0 4.0 0.00 0.00 0.00 33 1008.1
20260505194630 83 203 2.0 4.0 0.00 0.00 0.00 33 1008.5
20260505193629 83 126 1.0 4.0 0.00 0.00 0.00 34 1008.5
20260505192628 83 245 1.0 4.0 0.00 0.00 0.00 33 1008.5
20260505191627 83 109 2.0 4.0 0.00 0.00 0.00 34 1008.8
20260505190556 83 278 2.0 4.0 0.00 0.00 0.00 33 1009.1
20260505185555 83 346 2.0 4.0 0.00 0.00 0.00 36 1009.1
20260505184554 82 245 1.0 3.0 0.00 0.00 0.00 35 1009.5
20260505183553 82 102 2.0 4.0 0.00 0.00 0.00 37 1009.5
20260505182553 82 124 3.0 5.0 0.00 0.00 0.00 35 1009.5
20260505181552 82 226 1.0 2.0 0.00 0.00 0.00 35 1009.8
20260505180551 82 283 1.0 2.0 0.00 0.00 0.00 36 1009.8
20260505175551 81 107 1.0 3.0 0.00 0.00 0.00 34 1009.8
20260505174518 81 139 2.0 6.0 0.00 0.00 0.00 35 1009.8
20260505173447 81 124 2.0 6.0 0.00 0.00 0.00 37 1009.8
20260505172446 81 151 2.0 4.0 0.00 0.00 0.00 38 1010.2
20260505171445 80 290 1.0 4.0 0.00 0.00 0.00 40 1010.2
20260505170414 80 242 1.0 3.0 0.00 0.00 0.00 42 1010.2
20260505165413 80 277 1.0 3.0 0.00 0.00 0.00 43 1010.5
20260505164412 80 108 2.0 3.0 0.00 0.00 0.00 43 1010.5
20260505163309 79 300 0.0 2.0 0.00 0.00 0.00 44 1010.8
20260505162308 79 287 0.0 2.0 0.00 0.00 0.00 44 1010.8
20260505161308 78 278 0.0 2.0 0.00 0.00 0.00 44 1010.8
20260505160236 78 271 0.0 2.0 0.00 0.00 0.00 47 1011.2
20260505153234 76 198 1.0 2.0 0.00 0.00 0.00 49 1011.2
20260505152202 76 88 0.0 2.0 0.00 0.00 0.00 49 1011.2
20260505151201 75 263 0.0 1.0 0.00 0.00 0.00 52 1011.2
20260505150200 74 278 0.0 1.0 0.00 0.00 0.00 54 1011.2
20260505124947 64 266 0.0 0.0 0.00 0.00 0.00 68 1011.5
20260505123946 64 260 0.0 0.0 0.00 0.00 0.00 71 1011.5
20260505122946 63 260 0.0 0.0 0.00 0.00 0.00 71 1011.5
20260505121945 62 259 0.0 0.0 0.00 0.00 0.00 73 1011.5
20260505120944 62 260 0.0 0.0 0.00 0.00 0.00 75 1011.5
20260505115943 61 259 0.0 0.0 0.00 0.00 0.00 74 1011.5
20260505114912 60 259 0.0 0.0 0.00 0.00 0.00 75 1011.2
20260505113911 60 260 0.0 0.0 0.00 0.00 0.00 75 1011.2
20260505112911 60 260 0.0 0.0 0.00 0.00 0.00 76 1011.2
20260505111910 59 260 0.0 0.0 0.00 0.00 0.00 76 1011.2
20260505110909 58 260 0.0 0.0 0.00 0.00 0.00 77 1011.2
20260505101906 57 259 0.0 0.0 0.00 0.00 0.00 79 1010.8
20260505100905 57 260 0.0 0.0 0.00 0.00 0.00 79 1010.8
20260505095833 57 260 0.0 0.0 0.00 0.00 0.00 79 1010.5
20260505094833 57 260 0.0 0.0 0.00 0.00 0.00 79 1010.5
20260505093832 57 260 0.0 0.0 0.00 0.00 0.00 79 1010.5
20260505092800 57 260 0.0 0.0 0.00 0.00 0.00 80 1010.5
20260505091759 57 260 0.0 0.0 0.00 0.00 0.00 79 1010.2
20260505090759 57 259 0.0 0.0 0.00 0.00 0.00 79 1010.5
20260505085758 57 260 0.0 0.0 0.00 0.00 0.00 79 1010.2
20260505084757 57 260 0.0 0.0 0.00 0.00 0.00 79 1010.5
20260505083757 57 260 0.0 0.0 0.00 0.00 0.00 79 1010.5
20260505082756 57 260 0.0 0.0 0.00 0.00 0.00 80 1010.5
20260505081755 56 260 0.0 0.0 0.00 0.00 0.00 81 1010.2
20260505080754 56 260 0.0 0.0 0.00 0.00 0.00 81 1010.2
20260505075723 56 260 0.0 0.0 0.00 0.00 0.00 81 1010.2
20260505074722 56 260 0.0 0.0 0.00 0.00 0.00 82 1010.2
20260505073619 56 260 0.0 0.0 0.00 0.00 0.00 82 1010.2
20260505072618 55 260 0.0 0.0 0.00 0.00 0.00 83 1010.2
20260505071618 55 260 0.0 0.0 0.00 0.00 0.00 84 1010.2
20260505070617 55 256 0.0 0.0 0.00 0.00 0.00 83 1010.2
20260505065616 55 256 0.0 0.0 0.00 0.00 0.00 83 1010.2
20260505064615 55 256 0.0 0.0 0.00 0.00 0.00 82 1010.2
20260505063615 55 256 0.0 0.0 0.00 0.00 0.00 82 1010.2
20260505062614 55 256 0.0 0.0 0.00 0.00 0.00 82 1010.2
20260505061613 56 256 0.0 0.0 0.00 0.00 0.00 83 1010.2
20260505060613 56 256 0.0 0.0 0.00 0.00 0.00 82 1010.2
20260505055541 56 256 0.0 0.0 0.00 0.00 0.00 83 1010.2
20260505054540 56 256 0.0 0.0 0.00 0.00 0.00 82 1010.2
20260505053539 56 256 0.0 0.0 0.00 0.00 0.00 81 1010.2
20260505052539 56 256 0.0 0.0 0.00 0.00 0.00 81 1010.2
20260505051538 56 256 0.0 0.0 0.00 0.00 0.00 81 1010.5
20260505050537 56 256 0.0 0.0 0.00 0.00 0.00 81 1010.2
20260505041503 57 256 0.0 0.0 0.00 0.00 0.00 79 1010.2
20260505040502 57 256 0.0 0.0 0.00 0.00 0.00 79 1010.2
20260505035502 57 256 0.0 0.0 0.00 0.00 0.00 79 1010.2
20260505034501 57 256 0.0 0.0 0.00 0.00 0.00 79 1010.2
20260505033500 58 256 0.0 0.0 0.00 0.00 0.00 78 1010.2
20260505032459 58 256 0.0 0.0 0.00 0.00 0.00 77 1010.2
20260505031458 58 256 0.0 0.0 0.00 0.00 0.00 78 1010.2
20260505030457 58 256 0.0 0.0 0.00 0.00 0.00 78 1010.2
20260505025457 59 256 0.0 0.0 0.00 0.00 0.00 77 1010.2
20260505024425 59 256 0.0 0.0 0.00 0.00 0.00 77 1010.2
20260505023425 59 256 0.0 0.0 0.00 0.00 0.00 76 1010.2
20260505022424 59 256 0.0 0.0 0.00 0.00 0.00 75 1010.2
20260505021423 59 256 0.0 0.0 0.00 0.00 0.00 76 1010.2
20260505020422 59 256 0.0 0.0 0.00 0.00 0.00 75 1009.8
20260505015422 60 256 0.0 0.0 0.00 0.00 0.00 75 1009.8
20260505014421 60 256 0.0 0.0 0.00 0.00 0.00 74 1009.8
20260505013420 60 256 0.0 0.0 0.00 0.00 0.00 73 1009.8
20260505012419 61 256 0.0 0.0 0.00 0.00 0.00 73 1009.8
20260505011418 61 256 0.0 0.0 0.00 0.00 0.00 72 1009.5
20260505010410 61 256 0.0 0.0 0.00 0.00 0.00 74 1009.5
20260505005409 62 256 0.0 0.0 0.00 0.00 0.00 72 1009.5
20260505004409 62 256 0.0 0.0 0.00 0.00 0.00 70 1009.5
20260505003408 63 256 0.0 0.0 0.00 0.00 0.00 69 1009.5
20260505002407 64 256 0.0 0.0 0.00 0.00 0.00 63 1009.5
20260505001407 64 256 0.0 0.0 0.00 0.00 0.00 61 1009.1
20260505000407 65 256 0.0 0.0 0.00 0.00 0.00 59 1009.5
20260504235406 65 256 0.0 0.0 0.00 0.00 0.00 58 1009.1
20260504234405 66 256 0.0 0.0 0.00 0.00 0.00 56 1009.1
20260504233404 67 256 0.0 0.0 0.00 0.00 0.00 54 1009.1
20260504232404 68 256 0.0 0.0 0.00 0.00 0.00 53 1009.1
20260504231403 68 256 0.0 0.0 0.00 0.00 0.00 51 1009.1